Location: Unspecified
(49.2170°N, 0.0000°E)
Time: 15:36:42
(UTC+00:00)

Transit 4A - Pass Details

Date: 18 June 2019
Orbit: 862 x 982 km, 66.8° (Epoch: 16 July)

Event Time Altitude Azimuth Distance (km) Brightness Sun altitude
Rises 19:08:23 0° 315° (NW) 3,690 12.7 7.3°
Reaches altitude 10° 19:11:35 10° 301° (WNW) 2,728 13.8 6.9°
Maximum altitude 19:16:08 21° 255° (WSW) 2,025 10.5 6.2°
Drops below altitude 10° 19:20:35 10° 209° (SSW) 2,671 10.3 5.6°
Sets 19:23:43 0° 194° (SSW) 3,590 10.8 5.1°
